TimeCDT,TemperatureF,Dew PointF,Humidity,Sea Level PressureIn,VisibilityMPH,Wind Direction,Wind SpeedMPH,Gust SpeedMPH,PrecipitationIn,Events,Conditions,WindDirDegrees,DateUTC
12:53 AM,48.0,37.0,66,29.98,10.0,South,8.1,-,N/A,,Clear,180,2013-03-15 05:53:00
1:53 AM,46.9,36.0,66,29.96,10.0,South,8.1,-,N/A,,Clear,180,2013-03-15 06:53:00
2:53 AM,48.0,36.0,63,29.93,10.0,South,9.2,-,N/A,,Clear,190,2013-03-15 07:53:00
3:53 AM,46.4,35.6,66,29.90,10.0,South,5.8,-,N/A,,Clear,170,2013-03-15 08:53:00
4:53 AM,46.9,36.0,66,29.85,10.0,South,3.5,-,N/A,,Clear,180,2013-03-15 09:53:00
5:53 AM,45.0,35.1,68,29.83,10.0,Calm,Calm,-,N/A,,Clear,0,2013-03-15 10:53:00
6:53 AM,42.1,33.1,70,29.83,10.0,WSW,4.6,-,N/A,,Clear,250,2013-03-15 11:53:00
7:53 AM,35.1,30.9,85,29.85,10.0,NW,5.8,-,N/A,,Clear,320,2013-03-15 12:53:00
8:53 AM,41.0,35.1,79,29.85,10.0,Calm,Calm,-,N/A,,Clear,0,2013-03-15 13:53:00
9:53 AM,51.1,36.0,56,29.83,10.0,NW,6.9,-,N/A,,Clear,310,2013-03-15 14:53:00
10:53 AM,55.9,35.1,45,29.81,10.0,NW,6.9,-,N/A,,Clear,310,2013-03-15 15:53:00
11:53 AM,62.1,37.0,39,29.79,10.0,NNW,9.2,-,N/A,,Clear,330,2013-03-15 16:53:00
12:53 PM,68.0,35.1,30,29.77,10.0,North,4.6,-,N/A,,Clear,360,2013-03-15 17:53:00
1:53 PM,70.0,34.0,27,29.74,10.0,Calm,Calm,-,N/A,,Clear,0,2013-03-15 18:53:00
2:53 PM,73.0,34.0,24,29.71,10.0,Calm,Calm,-,N/A,,Clear,0,2013-03-15 19:53:00
3:53 PM,73.0,36.0,26,29.70,10.0,NE,10.4,17.3,N/A,,Clear,50,2013-03-15 20:53:00
4:53 PM,69.1,37.0,31,29.71,10.0,NNE,15.0,-,N/A,,Clear,30,2013-03-15 21:53:00
5:53 PM,66.0,36.0,33,29.72,10.0,NE,9.2,-,N/A,,Clear,50,2013-03-15 22:53:00
6:53 PM,61.0,37.0,41,29.77,10.0,North,17.3,-,N/A,,Clear,10,2013-03-15 23:53:00
7:53 PM,51.1,37.0,59,29.84,10.0,NNE,9.2,-,N/A,,Clear,20,2013-03-16 00:53:00
8:53 PM,45.0,36.0,71,29.87,10.0,North,8.1,-,N/A,,Clear,10,2013-03-16 01:53:00
9:53 PM,43.0,36.0,76,29.88,10.0,NNE,9.2,-,N/A,,Clear,20,2013-03-16 02:53:00
10:53 PM,41.0,35.1,79,29.89,10.0,North,8.1,-,N/A,,Clear,10,2013-03-16 03:53:00
11:53 PM,39.0,33.1,79,29.90,9.0,North,11.5,-,N/A,,Clear,360,2013-03-16 04:53:00